Change the Weather History Date:

Sunday, December 25, 2011

  Actual Average Record
Temperature  
Mean Temperature 58 °F -  
Max Temperature 73 °F 64 °F 79 °F (2013)
Min Temperature 42 °F 42 °F 37 °F (1997)
Degree Days  
Heating Degree Days 8    
Growing Degree Days 8 (Base 50)    
Moisture  
Dew Point 24 °F    
Average Humidity 33    
Maximum Humidity 66    
Minimum Humidity 12    
Precipitation  
Precipitation 0.00 in - - ()
Sea Level Pressure  
Sea Level Pressure 30.25 in    
Wind  
Wind Speed 6 mph (East)    
Max Wind Speed 23 mph    
Max Gust Speed 45 mph    
Visibility 10 miles    
Events      
Averages and records for this station are not official NWS values.
T = Trace of Precipitation, MM = Missing Value Source: NWS Daily Summary

Daily Weather History Graph

Daily Weather History Graph

Search for Another Location

Airport or City:

Trip Planner

Search our weather history database for the weather conditions in past years. The results will help you decide how hot, cold, wet, or windy it might be!

Date:

Astronomy

Dec. 25, 2011 Rise Set
Actual Time 6:47 AM PST 4:48 PM PST
Civil Twilight 6:20 AM PST 5:15 PM PST
Nautical Twilight 5:49 AM PST 5:46 PM PST
Astronomical Twilight 5:19 AM PST 6:16 PM PST
Moon 7:31 AM PST (12/25) 6:10 PM PST (12/25)
Length of Visible Light 10h 55m
Length of Day
10h 00m
New Moon, 2% of the Moon is Illuminated
Dec 25
New Moon
Dec 31
First Quarter
Jan 8
Full
Jan 16
Last Quarter
Jan 22
New

Hourly Weather History & Observations

Time (PST) Temp. Windchill Dew Point Humidity Pressure Visibility Wind Dir Wind Speed Gust Speed Precip Events Conditions
12:53 AM 42.1 °F 38.4 °F 21.0 °F 43% 30.32 in 10.0 mi East 5.8 mph - N/A   Clear
1:53 AM 48.0 °F - 19.0 °F 32% 30.31 in 8.0 mi SE 9.2 mph - N/A   Clear
2:53 AM 48.0 °F - 18.0 °F 30% 30.30 in 10.0 mi East 11.5 mph - N/A   Clear
3:53 AM 48.0 °F - 19.0 °F 32% 30.28 in 10.0 mi East 5.8 mph - N/A   Clear
4:53 AM 48.0 °F - 17.1 °F 29% 30.29 in 10.0 mi ESE 6.9 mph - N/A   Clear
5:53 AM 48.9 °F - 16.0 °F 27% 30.29 in 10.0 mi East 11.5 mph - N/A   Clear
6:53 AM 46.9 °F - 19.9 °F 34% 30.30 in 10.0 mi ENE 6.9 mph - N/A   Clear
7:53 AM 55.9 °F - 19.0 °F 24% 30.31 in 10.0 mi North 23.0 mph 44.9 mph N/A   Clear
8:53 AM 59.0 °F - 21.0 °F 23% 30.32 in 10.0 mi Calm Calm - N/A   Clear
9:53 AM 64.9 °F - 17.1 °F 16% 30.31 in 10.0 mi East 3.5 mph - N/A   Clear
10:53 AM 68.0 °F - 16.0 °F 14% 30.28 in 10.0 mi SSE 5.8 mph - N/A   Clear
11:53 AM 70.0 °F - 16.0 °F 13% 30.24 in 10.0 mi Calm Calm - N/A   Clear
12:53 PM 73.0 °F - 18.0 °F 12% 30.20 in 10.0 mi Calm Calm - N/A   Clear
1:53 PM 72.0 °F - 24.1 °F 17% 30.19 in 10.0 mi WNW 8.1 mph - N/A   Clear
2:53 PM 69.1 °F - 26.1 °F 20% 30.19 in 10.0 mi WNW 5.8 mph - N/A   Clear
3:53 PM 66.9 °F - 28.0 °F 23% 30.19 in 10.0 mi West 4.6 mph - N/A   Clear
4:53 PM 57.0 °F - 37.9 °F 49% 30.20 in 10.0 mi Calm Calm - N/A   Clear
5:53 PM 48.0 °F - 37.0 °F 66% 30.22 in 10.0 mi ESE 4.6 mph - N/A   Clear
6:53 PM 50.0 °F - 39.0 °F 66% 30.21 in 10.0 mi SE 6.9 mph - N/A   Clear
7:53 PM 51.1 °F - 37.9 °F 61% 30.21 in 10.0 mi Calm Calm - N/A   Clear
8:53 PM 52.0 °F - 32.0 °F 47% 30.20 in 10.0 mi Calm Calm - N/A   Clear
9:53 PM 51.1 °F - 27.0 °F 39% 30.20 in 10.0 mi ENE 5.8 mph - N/A   Clear
10:53 PM 48.0 °F - 27.0 °F 44% 30.21 in 10.0 mi ENE 4.6 mph - N/A   Clear
11:53 PM 48.0 °F - 24.1 °F 39% 30.20 in 10.0 mi ENE 3.5 mph - N/A   Clear